Weather History for Aurora, IL

Change the Weather History Date:

Thursday, August 29, 2013

  Actual Average Record
Temperature  
Mean Temperature 77 °F 69 °F  
Max Temperature 88 °F 80 °F 93 °F (2010)
Min Temperature 66 °F 58 °F 48 °F (2001)
Degree Days  
Heating Degree Days 0 1  
Month to date heating degree days 12 4  
Since 1 June heating degree days 72 54  
Since 1 July heating degree days 28 13  
Cooling Degree Days 12 5  
Month to date cooling degree days 161 164  
Year to date cooling degree days 606 575  
Since 1 June cooling degree days 526 534  
Growing Degree Days 28 (Base 50)    
Moisture  
Dew Point 68 °F    
Average Humidity 74    
Maximum Humidity 97    
Minimum Humidity 50    
Precipitation  
Precipitation 0.00 in 0.10 in 0.11 in (2006)
Month to date precipitation 2.37 3.93  
Year to date precipitation 25.23 25.01  
Sea Level Pressure  
Sea Level Pressure 30.05 in    
Wind  
Wind Speed 3 mph (ESE)    
Max Wind Speed 9 mph    
Max Gust Speed 13 mph    
Visibility 6 miles    
Events      
T = Trace of Precipitation, MM = Missing Value Source: NWS Daily Summary

Daily Weather History Graph

Daily Weather History Graph

Search for Another Location

Airport:

Trip Planner

Search our weather history database for the weather conditions in past years. The results will help you decide how hot, cold, wet, or windy it might be!

Date:

Astronomy

Aug. 29, 2013 Rise Set
Actual Time 6:16 AM CDT 7:31 PM CDT
Civil Twilight 5:48 AM CDT 8:00 PM CDT
Nautical Twilight 5:13 AM CDT 8:34 PM CDT
Astronomical Twilight 4:37 AM CDT 9:11 PM CDT
Moon 12:05 AM CDT (8/29) 3:03 PM CDT (8/29)
Length of Visible Light 14h 12m
Length of Day
13h 14m
Last Quarter, 38% of the Moon is Illuminated
Aug 29
Last Quarter
Sep 5
New
Sep 12
First Quarter
Sep 19
Full
Sep 26
Last Quarter

Hourly Weather History & Observations

Time (CDT) Temp. Heat Index Dew Point Humidity Pressure Visibility Wind Dir Wind Speed Gust Speed Precip Events Conditions
12:16 AM 68.0 °F - 66.2 °F 94% 30.05 in 4.0 mi ENE 4.6 mph - N/A   Scattered Clouds
12:23 AM 69.8 °F - 66.2 °F 88% 30.05 in 4.0 mi ENE 8.1 mph - N/A   Mostly Cloudy
12:52 AM 70.0 °F - 68.0 °F 93% 30.04 in 4.0 mi East 6.9 mph - N/A   Overcast
1:52 AM 71.1 °F - 68.0 °F 90% 30.04 in 4.0 mi East 5.8 mph - N/A   Overcast
2:15 AM 71.6 °F - 68.0 °F 88% 30.05 in 5.0 mi East 4.6 mph - N/A   Overcast
2:52 AM 71.1 °F - 68.0 °F 90% 30.04 in 5.0 mi East 3.5 mph - N/A   Overcast
3:52 AM 71.1 °F - 68.0 °F 90% 30.04 in 5.0 mi Calm Calm - N/A   Overcast
4:49 AM 71.6 °F - 69.8 °F 94% 30.06 in 4.0 mi Calm Calm - N/A   Overcast
4:52 AM 71.1 °F - 69.1 °F 93% 30.04 in 4.0 mi Calm Calm - N/A   Overcast
5:52 AM 71.1 °F - 69.1 °F 93% 30.05 in 4.0 mi East 3.5 mph - N/A   Overcast
6:41 AM 71.6 °F - 69.8 °F 94% 30.08 in 2.5 mi East 3.5 mph - N/A   Overcast
6:52 AM 71.1 °F - 69.1 °F 93% 30.06 in 2.5 mi ESE 4.6 mph - N/A   Overcast
7:14 AM 71.6 °F - 69.8 °F 94% 30.08 in 3.0 mi ESE 4.6 mph - N/A   Overcast
7:27 AM 71.6 °F - 69.8 °F 94% 30.09 in 2.5 mi East 4.6 mph - N/A   Overcast
7:52 AM 72.0 °F - 69.1 °F 91% 30.08 in 2.5 mi ESE 3.5 mph - N/A   Overcast
8:05 AM 73.4 °F - 69.8 °F 88% 30.09 in 3.0 mi ESE 4.6 mph - N/A   Overcast
8:52 AM 73.9 °F - 69.1 °F 85% 30.09 in 4.0 mi SE 4.6 mph - N/A   Haze
9:21 AM 73.4 °F - 68.0 °F 83% 30.10 in 4.0 mi Calm Calm - N/A   Haze
9:28 AM 75.2 °F - 68.0 °F 78% 30.10 in 4.0 mi Calm Calm - N/A   Haze
9:34 AM 75.2 °F - 69.8 °F 83% 30.10 in 5.0 mi Calm Calm - N/A   Haze
9:52 AM 75.9 °F - 68.0 °F 76% 30.09 in 5.0 mi Variable 3.5 mph - N/A   Haze
10:52 AM 79.0 °F - 69.1 °F 72% 30.09 in 7.0 mi Calm Calm - N/A   Clear
11:52 AM 82.0 °F 85.5 °F 69.1 °F 65% 30.09 in 9.0 mi Calm Calm - N/A   Partly Cloudy
12:52 PM 84.0 °F 87.0 °F 68.0 °F 58% 30.07 in 9.0 mi Calm Calm - N/A   Partly Cloudy
1:52 PM 84.9 °F 87.6 °F 66.9 °F 55% 30.05 in 8.0 mi SSE 5.8 mph - N/A   Clear
2:52 PM 87.1 °F 89.9 °F 66.9 °F 51% 30.03 in 9.0 mi South 6.9 mph - N/A   Clear
3:52 PM 88.0 °F 90.3 °F 66.0 °F 48% 30.01 in 9.0 mi Calm Calm - N/A   Clear
4:52 PM 88.0 °F 90.3 °F 66.0 °F 48% 30.00 in 10.0 mi South 4.6 mph - N/A   Clear
5:52 PM 86.0 °F 89.4 °F 68.0 °F 55% 29.99 in 10.0 mi SW 8.1 mph - N/A   Clear
6:52 PM 82.0 °F 86.3 °F 71.1 °F 69% 29.99 in 9.0 mi WSW 4.6 mph - N/A   Clear
7:52 PM 78.1 °F - 70.0 °F 76% 29.99 in 9.0 mi Calm Calm - N/A   Clear
8:52 PM 75.0 °F - 70.0 °F 84% 30.00 in 9.0 mi Calm Calm - N/A   Clear
9:52 PM 73.9 °F - 69.1 °F 85% 29.99 in 8.0 mi SE 3.5 mph - N/A   Clear
10:52 PM 73.0 °F - 66.0 °F 79% 29.99 in 9.0 mi Calm Calm - N/A   Clear
11:52 PM 71.1 °F - 64.0 °F 78% 29.99 in 10.0 mi Calm Calm - N/A   Clear